Regional Weather Roundup
Issued by NWS

Home | Current Version | Previous Version | Graphics & Text | Print | Product List | Glossary On
Versions: 1 2 3 4 5 6 7 8 9 10 11 12 13 14 15 16 17 18 19 20 21 22 23 24 25 26 27 28 29 30 31 32 33 34 35 36 37 38 39 40 41 42 43 44 45 46 47 48 49 50
000
ASUS43 KIND 201300
RWRIN

WEATHER ROUNDUP FOR INDIANA
NATIONAL WEATHER SERVICE INDIANAPOLIS IN
900 AM EDT WED SEP 20 2017

NOTE: "FAIR" INDICATES FEW OR NO CLOUDS BELOW 12,000 FEET WITH NO
SIGNIFICANT WEATHER AND/OR OBSTRUCTIONS TO VISIBILITY.

* - STATION DOES NOT REPORT WEATHER SUCH AS PRECIPITATION OR FOG.

+ - STATION NOT QUALITY CONTROLLED BY THE NATIONAL WEATHER SERVICE.
    USE DATA WITH CAUTION...ESPECIALLY DEWPOINT AND RELATIVE
    HUMIDITY OBSERVATIONS.

INZ001>003-010>013-019-020-201400-
NORTHWEST INDIANA

CITY           SKY/WX    TMP DP  RH WIND       PRES   REMARKS
GARY /AIRPORT/ SUNNY     68  66  94 SE8       29.95R
KNOX *+        SUNNY     64  64 100 SE5       29.97S
MICHIGAN CITY+ SUNNY     64  64 100 SE3       29.97S
MONTICELLO +   SUNNY     66  64  96 SE5       29.97S FOG
RENSSELAER +   SUNNY     61  55  82 SE5       29.96S FOG

$$

LMZ046-743>745-201400-
SOUTHERN LAKE MICHIGAN

STATION/POSITION TIME  TEMP    WIND        PRES    WAVE
                       AIR SEA DIR/SP/G            HT
                 (UTC) (F)     (DEG/KT/KT) (MB)    (FT)
BURNS HARBOR     1240   69     170/  7/ 11 1014.6S
MICHIGAN CITY    1230   65     130/  9/ 10   N/A
5NW MICH CITY    1250   67 68  150/  8/ 10   N/A     1

$$

INZ004-005-014>016-021>024-201400-
NORTH CENTRAL INDIANA

CITY           SKY/WX    TMP DP  RH WIND       PRES   REMARKS
ELKHART        FOG       64  64 100 SE5       30.00R VSB<1/4
GOSHEN         FOG       64  62  93 SE3       30.00R VSB 1/4
SOUTH BEND     FOG       64  64 100 E8        29.99R VSB 1/2
WARSAW +       FOG       63  63 100 CALM      30.00S VSB<1/4

$$

INZ006>009-017-018-025>027-201400-
NORTHEAST INDIANA

CITY           SKY/WX    TMP DP  RH WIND       PRES   REMARKS
AUBURN +       FOG       64  63  94 CALM      30.03R VSB<1/4
FORT WAYNE     FOG       65  64  97 CALM      30.02R VSB 3/4
KENDALLVILLE + FOG       64  64 100 SE3       30.02S VSB<1/4

$$

INZ028-029-035-036-043>045-051>053-201400-
WEST CENTRAL INDIANA

CITY           SKY/WX    TMP DP  RH WIND       PRES   REMARKS
LAFAYETTE      SUNNY     67  67 100 CALM      29.97R FOG
TERRE HAUTE    SUNNY     69  68  96 SE3       29.98R FOG

$$

INZ030>032-037>040-046>048-054>057-064-065-201400-
CENTRAL INDIANA

CITY           SKY/WX    TMP DP  RH WIND       PRES   REMARKS
COLUMBUS       FOG       66  64  94 S3        30.02S VSB 1/4
GREENWOOD *+   CLOUDY    69  69  99 SE3       30.02S VSB 1/4
INDIANAPOLIS   FOG       67  66  97 SE7       30.00R VSB 1/8
-EAGLE CREEK   SUNNY     68  66  93 SE5       30.00R FOG
KOKOMO +       CLOUDY    66  66 100 S6        30.01R FOG
MT COMFORT *+    N/A    N/A N/A N/A MISG        N/A
SHELBYVILLE    FOG       68  65  90 S5        30.02R VSB 1/2

$$

INZ033-034-041-042-049-050-058-059-201400-
EAST CENTRAL INDIANA

CITY           SKY/WX    TMP DP  RH WIND       PRES   REMARKS
MUNCIE         SUNNY     70  66  87 S5        30.02R FOG
RICHMOND +     PTSUNNY   64  64 100 CALM      30.06R FOG

$$

INZ060-061-067>069-081>083-085>088-201400-
SOUTHWEST INDIANA

CITY           SKY/WX    TMP DP  RH WIND       PRES   REMARKS
EVANSVILLE     SUNNY     70  68  93 SE3       30.00R
HUNTINGBURG +    N/A    N/A N/A N/A MISG        N/A

$$

INZ062-063-066-070>080-084-089>092-201400-
SOUTH CENTRAL AND SOUTHEAST INDIANA

CITY           SKY/WX    TMP DP  RH WIND       PRES   REMARKS
BLOOMINGTON    FOG       67  65  93 SE5       30.01R VSB 1/2
MADISON *+     CLOUDY    66  64  94 CALM      30.06R VSB 1/4
SEYMOUR +      FOG       68  68 100 CALM      30.03R VSB 1/4

$$





USA.gov is the U.S. government's official web portal to all federal, state and local government web resources and services.